Location: Earls Croome
(52.0667°N, 2.2000°W)
Time: 18:50:04
(UTC+00:00)

Cosmos 1937 Rocket - Pass Details

Date: 17 November 2019
Orbit: 747 x 780 km, 74.0° (Epoch: 11 December)

Event Time Altitude Azimuth Distance (km) Brightness Sun altitude
Rises 05:27:32 0° 209° (SSW) 3,187 6.5 -18.8°
Reaches altitude 10° 05:29:53 10° 211° (SSW) 2,265 5.7 -18.4°
Maximum altitude 05:35:01 75° 296° (WNW) 779 3.3 -17.6°
Drops below altitude 10° 05:40:11 10° 23° (NNE) 2,277 6.1 -16.9°
Sets 05:42:33 0° 25° (NNE) 3,207 6.9 -16.5°
